Location: Hamilton
(37.7830°S, 175.2830°E)
Time: 17:21:41
(UTC+12:00)

Cosmos 1386 Rocket - Pass Details

Date: 24 January 2019
Orbit: 929 x 1007 km, 83.0° (Epoch: 17 April)

Event Time Altitude Azimuth Distance (km) Brightness Sun altitude
Exits shadow 23:09:06 38° 348° (NNW) 1,424 5.0 -24.0°
Maximum altitude 23:11:38 83° 263° (W) 973 4.4 -24.3°
Drops below altitude 10° 23:17:48 10° 175° (S) 2,688 7.4 -25.0°
Sets 23:20:18 0° 174° (S) 3,632 8.2 -25.3°
